Regional Weather Roundup
Issued by NWS Wakefield, VA

Home | Current Version | Previous Version | Graphics & Text | Print | Product List | Glossary On
Versions: 1 2 3 4 5 6 7 8 9 10 11 12 13 14 15 16 17 18 19 20 21 22 23 24 25 26 27 28 29 30 31 32 33 34 35 36 37 38 39 40 41 42 43 44 45 46 47 48 49 50
000
ASUS41 KAKQ 172110
RWRAKQ

REGIONAL WEATHER ROUNDUP
NATIONAL WEATHER SERVICE WAKEFIELD VA
500 PM EDT WED SEP 17 2014

Note: "fair" indicates few or no clouds below 12,000 feet with no
significant weather and/or obstructions to visibility. * = Denotes
station may not report precipitation (e.g., rain,snow,etc.),
thunder or fog.

VAZ042-051-052>054-056-172200-
NORTHERN VIRGINIA

CITY           SKY/WX    TMP DP  RH WIND       PRES   REMARKS
WASH NATIONAL  PTSUNNY   78  47  33 CALM      29.97S
DULLES         PTSUNNY   72  49  44 W6        29.98R
FORT BELVOIR   SUNNY     75  51  42 VRB2      29.97S
QUANTICO       MOSUNNY   75  50  41 SW5       29.97F
FREDERICKSBRG* MOSUNNY   75  52  44 CALM      29.96S
STAFFORD*      MOSUNNY   73  52  47 CALM      30.01R
WARRENTON      CLOUDY    75  58  57 SE3       29.97S
CULPEPER*      CLOUDY    75  50  41 CALM      29.97S
MANASSAS*      NOT AVBL
LEESBURG*      PTSUNNY   73  52  46 CALM      29.98S
WINCHESTER     SUNNY     73  46  38 S5        29.97F
FRONT ROYAL*   MOCLDY    72  50  46 SE5       29.96F
LURAY*         PTCLDY    73  50  43 SW6       29.97S
$$

VAZ048-049-060>072-079>083-172200-
CENTRAL AND SOUTH CENTRAL VIRGINIA...AND NORTH CENTRAL NORTH CAROLINA

CITY           SKY/WX    TMP DP  RH WIND       PRES   REMARKS
RICHMOND       PTSUNNY   76  54  46 E8        29.95S
CHESTERFIELD*  CLOUDY    75  18  11 SE6       29.97R
PETERSBURG*    MOSUNNY   74  54  48 E3        29.96R
HANOVER        PTSUNNY   75  55  49 CALM      29.97S
TAPPAHANNOCK*  PTSUNNY   75  53  45 E5        29.97S
CHARLOTTSVILLE MOSUNNY   73  51  46 CALM      29.97S
ORANGE*        PTSUNNY   73  50  43 CALM      29.98S
LOUISA*        CLOUDY    75  54  46 CALM      29.96S
FARMVILLE*     CLOUDY    77  52  41 E5        29.94S
CREWE*         NOT AVBL
FORT PICKETT*  MOCLDY    75  57  53 CALM      29.96S
LUNENBURG*     MOCLDY    75  61  61 NE3       29.96S
SOUTH HILL*    PTSUNNY   75  64  69 CALM      30.00S
LAWRENCEVILLE* MOCLDY    72  64  74 CALM      29.95S
ROANOKE RAPIDS MOCLDY    73  63  68 NE5       29.94R
RALEIGH        PTSUNNY   76  62  62 E6        29.93S
$$

VAZ088>098-172200-
SOUTHEAST VIRGINIA

CITY           SKY/WX    TMP DP  RH WIND       PRES   REMARKS
NORFOLK        PTSUNNY   74  57  55 NE10      29.95S
VIRGINIA BEACH PTSUNNY   72  57  59 NE10      29.94S
NORFOLK NAVAL  PTSUNNY   74  58  57 NE12      29.96F
WEST POINT*    PTSUNNY   77  54  44 E5        29.97S
NEWPORT NEWS   MOSUNNY   77  60  55 E8        29.96R
LANGLEY AFB    MOSUNNY   74  60  63 E10       29.95S
FORT EUSTIS    MOSUNNY   74  55  50 E6        29.94R
WILLIAMSBURG*  MOSUNNY   79  61  53 CALM      29.96S
HR EXEC AP*    MOCLDY    73  57  56 NE5       29.96F
FRANKLIN*      PTSUNNY   75  59  57 NE7       29.95S
WAKEFIELD      PTSUNNY   74  59  59 VRB3      29.95S
$$

VAZ020-022-025-037-045-172200-
WEST CENTRAL AND SOUTHWEST VIRGINIA

CITY           SKY/WX    TMP DP  RH WIND       PRES   REMARKS
STAUNTON*      PTSUNNY   73  48  41 S6        30.00S
HOT SPRINGS VA CLOUDY    58  39  50 S6        30.08F
LYNCHBURG      CLOUDY    71  57  61 CALM      29.99S
DANVILLE       PTSUNNY   75  60  59 N5        29.96S
SOUTH BOSTON*  NOT AVBL
MARTINSVILLE   SUNNY     75  60  59 N5        30.00F
ROANOKE        MOSUNNY   71  54  54 VRB6      30.00F
BLACKSBURG     SUNNY     70  59  68 E6        30.02F
DUBLIN*        SUNNY     70  58  65 E7        30.00F
MARION*        PTSUNNY   71  56  59 E6        30.02S
HILLSVILLE*    MOSUNNY   67  55  64 S3        30.00F
RICHLANDS*     CLEAR     72  59  64 NW6       29.99F
WISE*          SUNNY     70  52  52 NW3       30.02S
ABINGDON*      MOSUNNY   75  58  54 NW6       29.97S
$$

MDZ021>025-VAZ099-100-172200-
SOUTHERN MARYLAND AND THE DELMARVA PENINSULA

CITY           SKY/WX    TMP DP  RH WIND       PRES   REMARKS
PATUXENT RIVER MOSUNNY   72  51  47 E7        29.96F
BAY BRIDGE APT   N/A     72  45  37 NW5       29.97S
LEONARDTOWN    PTSUNNY   72  50  46 CALM      29.98S
DOVER          SUNNY     73  47  40 E8        29.96S
GEORGETOWN     SUNNY     74  45  35 E12       29.97F
EASTON         MOSUNNY   75  48  38 N5        30.01R
CAMBRIDGE      PTSUNNY   77  46  33 NW5       29.97R
SALISBURY      PTSUNNY   75  51  43 SE8       29.97R
OCEAN CITY     SUNNY     71  48  43 E8        29.98S
WALLOPS ISLAND CLOUDY    73  54  51 E8        29.98S
ACCOMACK*      MOSUNNY   70  54  56 E7        29.96S
$$

NCZ012>017-030>032-172200-
EASTERN NORTH CAROLINA

CITY           SKY/WX    TMP DP  RH WIND       PRES   REMARKS
ELIZABETH CITY NOT AVBL
AHOSKIE*       PTSUNNY   72  60  65 NE6       29.94S
EDENTON*       LGT RAIN  71  62  71 NE3       29.93S
CURRITUCK*     SUNNY     74  57  55 NE8G17    29.94S
KILL DEVIL HLS MOSUNNY   75  61  62 NE9G16    29.91S
MANTEO         CLOUDY    73  62  66 NE14      29.92S
CAPE HATTERAS  MOSUNNY   74  66  76 NE13G22   29.89S
TARBORO*       MOCLDY    78  64  63 NE7       29.94R
GOLDSBORO      PTSUNNY   77  72  84 CALM      29.89R
WASHINGTON     SUNNY     75  64  66 NE8       29.92S
GREENVILLE     PTSUNNY   77  64  65 NE8       29.94R
NEW BERN       MOSUNNY   77  67  71 E6        29.91R
WILMINGTON     PTSUNNY   79  72  79 NE7       29.87S
$$

VAZ048-172200-
ELSEWHERE

CITY           SKY/WX    TMP DP  RH WIND       PRES   REMARKS
HARRISBURG PA  MOSUNNY   73  50  44 VRB3      29.96S
BALTIMORE      PTSUNNY   71  49  45 CALM      29.97S
ANNAPOLIS      SUNNY     71  49  45 SE6       29.97S
ANDREWS AFB    MOSUNNY   70  52  52 E6        29.97S
WILMINGTON DE  SUNNY     70  50  49 S5        29.98S
PHILADELPHIA   MOSUNNY   74  46  36 CALM      29.97S
WILDWOOD NJ*   PTSUNNY   72  45  37 S5        29.99S
ATLANTIC CITY  MOSUNNY   69  54  58 E9        29.98R
HENDERSON NC   MOSUNNY   76  61  61 NE5       29.95S
GREENSBORO     PTSUNNY   75  62  64 NE7       29.94F
ROCKY MOUNT    CLOUDY    77  65  66 NE8       29.93R
FAYETTEVILLE   MOSUNNY   81  68  64 NE7       29.89S
CHARLOTTE      CLOUDY    72  64  76 N8        29.95F
$$

VAZ100-172200-
MARINE

STATION/POSITION TIME  TEMP    WIND        PRES    WAVE   SWELL
                       AIR SEA DIR/SP/G            HT/PER HT/PER
                 (UTC) (F)     (DEG/KT/KT) (MB)    (FT/S) (FT/S)
44066 TX TWR #4  2100   66 75  350/  8/ 10 1014.9S   4/12   5/12
CAPE MAY NJ      2100   69 76  200/  5/  7 1014.7R
LEWES DE         2100   69 72   90/  8/ 10 1014.8R
15NM E FENWICK I 2100   69 73              1014.8F   4/13
OCEAN-CITY-INLET 2100   71 72   90/  8/ 10 1014.6R
WACHAPREAGUE VA  2100   70 75   70/  9/ 11 1014.7R
THOMAS POINT MD  2100   72 75   CALM  /  1 1015.9F
GOOSES REEF MD   2100   72      50/  4/  4 1015.5R
COVE POINT MD    2100   71      40/  3/  4 1014.6F
SOLOMONS ISLAND  2100      77                N/A
BISHOPS HEAD MD  2100   72 75  290/  5/  6 1014.3F
PINEY POINT MD   2100          170/  7/  8   N/A
POTOMAC MD       2100   72     140/  2/  4 1014.1F
CAMBRIDGE MD     2100   73 75  290/  3/ 10 1014.4S
LEWISETTA VA     2100   72 75  130/  4/  5 1014.4R
RAPPAHANNOCK LGT 2100           60/  3/  4 1015.0S
STINGRAY PT      2100   73 76   80/  6/  8   N/A     1
YORK RVR RNG VA  2100   72     100/  7/  9 1014.0S
YORKTOWN VA      2100   72 77   90/ 11/ 12 1014.1F
JAMESTOWN VA     2100   72     130/  6/ 10   N/A
DOMINION TERM VA 2100   75      70/  2/  6 1014.3F
KIPTOPEKE VA     2100      80  100/  5/  9   N/A
CHES BAY BRIDGE  2100   71 76   40/ 10/ 12 1013.7F
CAPE HENRY VA    2100   71      50/ 11/ 13 1013.0S
CHESAPEAKE LGHT  2000   71      60/ 14/ 16 1014.6F
WILLOUBY STN VA  2100   71      60/  9/ 10 1012.9F
S CRANEY ISL VA  2100           20/  9/ 11 1013.8F
CAPE HENRY BUOY  2100      76                N/A     4/14   3/14
1ST LANDING BUOY 2100   72      50/ 10/ 12 1013.9S
CAPE CHARLES BUO 2100      75                N/A     4/14   3/14
OFFSHORE WE BUOY 2100      75                N/A     4/13   3/13
64NM E OF VA BCH 2100   73 78   30/ 12/ 16 1013.2F   6/13   5/13
DUCK PIER NC     2100   72 76   50/ 16/ 19 1012.7F
44100 DUCK FRF   2100      75                N/A     5/13   3/13
44056 DUCK FRF   2100                        N/A     5/13   3/13
OREGON INLET NC  2100   74 76   40/ 12/ 18 1012.5F
HATTERAS NC      2100   76 79   50/ 13/ 17 1012.4S
DIAMOND SHLS NC  2100   74     360/ 17/ 23 1011.2S   5/14   3/14
CAPE LOOKOUT NC  2000   74      50/ 10/ 11 1011.3F
$$



USA.gov is the U.S. government's official web portal to all federal, state and local government web resources and services.